TimeEST,TemperatureF,Dew PointF,Humidity,Sea Level PressureIn,VisibilityMPH,Wind Direction,Wind SpeedMPH,Gust SpeedMPH,PrecipitationIn,Events,Conditions,WindDirDegrees,DateUTC
12:11 AM,28.4,28.4,100,29.95,0.5,Calm,Calm,-,N/A,Fog,Light Freezing Fog,0,2013-02-16 05:11:00
12:20 AM,28.4,28.4,100,29.95,0.2,Calm,Calm,-,N/A,Fog,Light Freezing Fog,0,2013-02-16 05:20:00
12:44 AM,28.4,28.4,100,29.94,0.2,Calm,Calm,-,N/A,Fog,Light Freezing Fog,0,2013-02-16 05:44:00
12:51 AM,30.2,30.2,100,29.93,0.8,East,3.5,-,N/A,,Overcast,90,2013-02-16 05:51:00
12:53 AM,30.0,30.0,100,29.94,1.0,Calm,Calm,-,N/A,,Overcast,0,2013-02-16 05:53:00
1:02 AM,30.2,30.2,100,29.93,2.0,Calm,Calm,-,N/A,,Mostly Cloudy,0,2013-02-16 06:02:00
1:27 AM,28.4,28.4,100,29.93,3.0,Calm,Calm,-,N/A,,Clear,0,2013-02-16 06:27:00
1:53 AM,30.0,30.0,100,29.93,2.5,NNE,3.5,-,N/A,,Clear,20,2013-02-16 06:53:00
2:03 AM,30.2,30.2,100,29.93,2.5,Calm,Calm,-,N/A,,Scattered Clouds,0,2013-02-16 07:03:00
2:13 AM,28.4,28.4,100,29.93,3.0,Calm,Calm,-,N/A,,Mostly Cloudy,0,2013-02-16 07:13:00
2:24 AM,28.4,28.4,100,29.93,2.5,NW,3.5,-,N/A,,Overcast,310,2013-02-16 07:24:00
2:46 AM,30.2,30.2,100,29.92,2.5,Calm,Calm,-,N/A,,Overcast,0,2013-02-16 07:46:00
2:53 AM,30.0,30.0,100,29.91,2.0,Calm,Calm,-,N/A,,Overcast,0,2013-02-16 07:53:00
3:08 AM,30.2,28.4,93,29.91,2.5,Calm,Calm,-,N/A,,Overcast,0,2013-02-16 08:08:00
3:34 AM,30.2,30.2,100,29.91,3.0,North,3.5,-,N/A,,Overcast,350,2013-02-16 08:34:00
3:50 AM,30.2,30.2,100,29.91,3.0,Calm,Calm,-,N/A,,Overcast,0,2013-02-16 08:50:00
3:53 AM,30.9,30.9,100,29.91,3.0,Calm,Calm,-,N/A,,Overcast,0,2013-02-16 08:53:00
4:03 AM,30.2,30.2,100,29.91,3.0,Calm,Calm,-,N/A,,Overcast,0,2013-02-16 09:03:00
4:21 AM,33.8,33.8,100,29.90,6.0,North,4.6,-,N/A,,Overcast,350,2013-02-16 09:21:00
4:53 AM,34.0,33.1,96,29.90,8.0,North,8.1,-,N/A,,Overcast,360,2013-02-16 09:53:00
5:53 AM,34.0,30.9,89,29.91,10.0,North,9.2,-,N/A,,Scattered Clouds,350,2013-02-16 10:53:00
6:53 AM,34.0,30.0,85,29.91,10.0,North,10.4,-,N/A,,Overcast,360,2013-02-16 11:53:00
7:53 AM,35.1,30.0,82,29.93,10.0,North,10.4,17.3,N/A,,Overcast,360,2013-02-16 12:53:00
8:51 AM,33.8,32.0,93,29.92,1.8,North,11.5,18.4,0.00,Snow,Light Snow,10,2013-02-16 13:51:00
8:53 AM,34.0,32.0,92,29.92,1.5,North,10.4,18.4,0.00,Snow,Light Snow,360,2013-02-16 13:53:00
9:01 AM,33.8,32.0,93,29.91,1.5,North,12.7,-,0.00,Snow,Light Snow,360,2013-02-16 14:01:00
9:12 AM,33.8,32.0,93,29.91,3.0,North,10.4,-,0.00,Snow,Light Snow,360,2013-02-16 14:12:00
9:29 AM,33.8,32.0,93,29.92,10.0,North,9.2,17.3,0.00,,Overcast,10,2013-02-16 14:29:00
9:53 AM,35.1,30.9,85,29.91,10.0,North,10.4,-,0.00,,Overcast,10,2013-02-16 14:53:00
10:30 AM,35.6,30.2,81,29.91,10.0,North,9.2,-,N/A,,Overcast,10,2013-02-16 15:30:00
10:53 AM,36.0,30.0,79,29.91,10.0,North,11.5,-,N/A,,Overcast,360,2013-02-16 15:53:00
11:53 AM,37.0,28.9,73,29.89,10.0,North,10.4,-,N/A,,Overcast,360,2013-02-16 16:53:00
12:09 PM,37.4,28.4,70,29.88,10.0,North,8.1,-,N/A,,Overcast,360,2013-02-16 17:09:00
12:53 PM,37.0,28.0,70,29.87,10.0,North,5.8,-,N/A,,Overcast,360,2013-02-16 17:53:00
1:53 PM,36.0,30.0,79,29.85,5.0,North,8.1,-,0.00,Snow,Light Snow,350,2013-02-16 18:53:00
2:53 PM,35.1,33.1,92,29.84,8.0,NNW,4.6,-,0.00,,Overcast,340,2013-02-16 19:53:00
3:04 PM,35.6,33.8,93,29.84,8.0,NNW,5.8,-,0.00,,Overcast,340,2013-02-16 20:04:00
3:37 PM,35.6,32.0,87,29.83,7.0,NNW,12.7,-,0.00,Snow,Light Snow,340,2013-02-16 20:37:00
3:53 PM,35.1,32.0,89,29.82,4.0,North,8.1,-,0.00,Snow,Light Snow,350,2013-02-16 20:53:00
4:32 PM,33.8,32.0,93,29.81,7.0,North,8.1,-,0.00,,Overcast,350,2013-02-16 21:32:00
4:53 PM,34.0,32.0,92,29.82,3.0,North,6.9,-,0.00,Snow,Light Snow,360,2013-02-16 21:53:00
5:09 PM,33.8,32.0,93,29.82,2.5,NNW,5.8,-,0.00,Snow,Light Snow,340,2013-02-16 22:09:00
5:13 PM,33.8,32.0,93,29.82,3.0,North,4.6,-,0.00,Snow,Light Snow,350,2013-02-16 22:13:00
5:36 PM,33.8,32.0,93,29.83,2.0,Calm,Calm,-,0.00,Snow,Light Snow,0,2013-02-16 22:36:00
5:44 PM,33.8,32.0,93,29.83,1.5,NNW,4.6,-,0.00,Snow,Light Snow,330,2013-02-16 22:44:00
5:53 PM,33.1,32.0,96,29.83,2.0,NNW,6.9,-,0.00,Snow,Light Snow,340,2013-02-16 22:53:00
6:04 PM,33.8,32.0,93,29.82,1.5,North,5.8,-,0.00,Snow,Light Snow,350,2013-02-16 23:04:00
6:21 PM,33.8,32.0,93,29.81,1.2,North,4.6,-,0.00,Snow,Light Snow,360,2013-02-16 23:21:00
6:28 PM,33.8,32.0,93,29.81,1.5,North,4.6,-,0.00,Snow,Light Snow,10,2013-02-16 23:28:00
6:40 PM,33.8,32.0,93,29.81,3.0,North,4.6,-,0.00,Snow,Light Snow,360,2013-02-16 23:40:00
6:50 PM,33.8,32.0,93,29.80,3.0,North,5.8,-,0.00,Snow,Light Snow,360,2013-02-16 23:50:00
6:53 PM,33.1,32.0,96,29.80,3.0,North,5.8,-,0.00,Snow,Light Snow,360,2013-02-16 23:53:00
7:53 PM,33.1,32.0,96,29.79,3.0,NNW,6.9,-,0.00,Snow,Light Snow,340,2013-02-17 00:53:00
7:57 PM,33.8,32.0,93,29.79,2.5,North,6.9,-,0.00,Snow,Light Snow,350,2013-02-17 00:57:00
8:34 PM,33.8,32.0,93,29.78,1.5,North,9.2,-,0.00,Snow,Light Snow,350,2013-02-17 01:34:00
8:53 PM,32.0,32.0,100,29.77,1.5,North,6.9,-,0.00,Snow,Light Snow,360,2013-02-17 01:53:00
9:20 PM,32.0,32.0,100,29.76,1.8,North,8.1,-,0.00,Snow,Light Snow,350,2013-02-17 02:20:00
9:33 PM,32.0,32.0,100,29.75,1.8,North,8.1,-,0.00,Snow,Light Snow,360,2013-02-17 02:33:00
9:53 PM,32.0,30.9,96,29.74,2.0,North,9.2,-,0.00,Snow,Light Snow,360,2013-02-17 02:53:00
10:05 PM,32.0,30.2,93,29.73,2.5,North,12.7,-,0.00,Snow,Light Snow,360,2013-02-17 03:05:00
10:10 PM,32.0,30.2,93,29.73,3.0,North,12.7,-,0.00,Snow,Light Snow,360,2013-02-17 03:10:00
10:27 PM,32.0,28.4,87,29.72,10.0,North,10.4,-,0.00,,Overcast,350,2013-02-17 03:27:00
10:53 PM,30.9,28.9,92,29.70,10.0,North,10.4,-,0.00,,Overcast,360,2013-02-17 03:53:00
11:53 PM,30.0,26.1,85,29.67,3.0,North,10.4,-,0.00,Snow,Light Snow,350,2013-02-17 04:53:00